STARLINK-33666, 63592

Orbit data source: Space-Track

STARLINK-33666, 63592 is a payload satellite in LEO that was launched on Mon, 14 Apr 2025 UTC via an FALCON 9 launch vehicle from the Air Force Eastern Test Range (AFETR). Payload-class satellites include a variety of spacecraft equipped with specific instruments for various scientific and technological missions. These include communications satellites like Starlink; space stations such as the ISS; scientific satellites like the Hubble; Earth observation satellites from companies like Planet Labs, Umbra, and HawkEye 360; GPS; miniature CubeSats for education and research; and military/defense satellites.

Loading next visibility...
Identifier
63592, 2025-076Z
Orbit
LEO
Last TLE update
4 hours ago
Origin
Manufacturer
SpaceX/Seattle
Mission
Operational spacecraft
Bus & Motor
STARLINK V2MO, Unknown motor
Mass
575 kg wet, ~530 kg dry
Launch date (UTC)
2025-04-14 (1 month ago)
Launch vehicle
FALCON 9
Launch site
Air Force Eastern Test Range (AFETR)
Object type
Payload
Rocket body
Debris
Shape & HBR
Unknown
Radar Cross Section
Large (>1 m²)

Expand to show TLE details & history

TLE from 4 hours ago
0 STARLINK-33666
1 63592U 25076Z   25140.50002315 -.01204166  00000-0 -30726-1 0  9994
2 63592  43.0001 179.9022 0001486 283.1152  44.0297 15.41655149  6919
Epoch: 2025-05-20T12:00Z
TLE epoch observation values (Epoch: 2025-05-20T12:00:02Z)
Latitude
-21.86957°
Longitude
96.15342°
Altitude
445.545 km
Speed
7.646 km/s
True Right ascension
10h 18m 14s
True Declination
-21° 44' 44"
Sunlit
Object was in daylight at epoch
Visualization orbit readout
Latitude
-42.71175°
Longitude
20.33067°
Altitude
454.885 km
Speed
7.64 km/s
Apparent Right ascension
09h 10m 46s
Apparent Declination
-60° 26' 23"
Sunlit
Object is in daylight
Visualization observer readout
Local Sidereal Time
01:17:03
Azimuth
139.968° SSE
Elevation
-47.585°
Doppler factor
1
Orbital elements
Apogee altitude
444.195 km
Perigee altitude
442.167 km
Semi-major axis
6,821.318 km
Eccentricity
0.00015
Inclination
43.0001°
RAAN
179.9022°
Arg. of periapsis
283.1152°
True anomaly
Unknown
Mean anomaly
44.0297°
Eccentric anomaly
Unknown
Mean motion
3.85248 °/min
Orbital period
93.45 mins
BSTAR
-0.030726
Loading maneuver chart data...
Loading SW <> Apogee altitude chart data...
Loading historical data...
Loading historical data...
Loading historical data...
Loading historical data...
Loading historical data...
Loading historical data...
Loading historical data...

STARLINK-33666 Visibility forecast

Observer location: undefined°, undefined°

Span
Click to sort rows by Start time (UTC) header in descending order
Start Az.
Max El. time (UTC)
Max El. Az.
Max El.
End time (UTC)
End Az.
5 mins2025-05-21 05:27:13.370Z195.937° SSW2025-05-21 05:29:13.370Z155.009° SSE22.045°2025-05-21 05:32:13.370Z93.121° ESE
5 mins2025-05-21 07:05:13.370Z255.802° W2025-05-21 07:07:13.370Z290.351° WNW44.402°2025-05-21 07:10:13.370Z70.695° E
4 mins2025-05-21 08:44:13.370Z299.666° NW2025-05-21 08:46:13.370Z29.855° NE35.386°2025-05-21 08:48:13.370Z71.944° E
5 mins2025-05-21 10:22:13.370Z289.315° WNW2025-05-21 10:24:13.370Z87.647° E44.722°2025-05-21 10:27:13.370Z107.698° ESE
4 mins2025-05-21 12:00:13.370Z253.28° W2025-05-21 12:02:13.370Z207.229° SW20.728°2025-05-21 12:04:13.370Z167.242° S
|